Weather in Ghent

Belgium     51°03′23″N   3°42′33″E
temp.,
°C
wind,
m/s
gust,
m/s
humid.,
%
clouds,
%
prec.,
mm/h
press.,
hPa
HPBL,
m
7 march, sun
sun701:00+2ne23640 0.0 1030116
04:00+1ene24670 0.0 1028140
07:000ene13750 0.0 1027111
10:00+3ne24630 0.0 1027387
13:00+7nne33470 0.0 1025969
16:00+6n445324 0.0 10241184
19:00+3n366445 0.0 1024444
22:00+2nne35710 0.0 1025247
8 march, mon
mon801:00+1nne24740 0.0 1025145
04:000n11751 0.0 102428
07:000ne11764 0.0 102422
10:00+4e126021 0.0 1025348
13:00+7ene124960 0.0 1024847
16:00+7nne1151100 0.0 10231040
19:00+6ne1159100 0.0 1022328
22:00+5n1267100 0.0 1022110
9 march, tue
tue901:00+4ssw2471100 0.0 1022353
04:00+3sw367186 0.0 1021301
07:00+4wsw478393 0.1 1021323
10:00+7wnw367980 0.0 1021626
13:00+10w466184 0.1 10211162
16:00+10wnw465441 0.1 10201117
19:00+8w237121 0.1 102098
22:00+5wsw38806 0.0 1021306
10 march, wed
wed1001:00+5ssw388524 0.0 1020306
04:00+4ssw41087100 0.0 1019353
07:00+4ssw51279100 0.0 1019485
10:00+7ssw81364100 0.0 1018799
13:00+9ssw81356100 0.0 1016960
16:00+9ssw81556100 0.1 1013933
19:00+7ssw101880100 1.8 1010857
22:00+8ssw101887100 2.8 1008942
11 march, thu
thu1101:00+11ssw91885100 2.8 10051102
04:00+12sw102086100 0.8 10031419
07:00+11wsw102375100 3.8 10031973
10:00+10wsw122266100 0.1 10042107
13:00+12wsw13215095 0.3 10052425
16:00+12wsw1219503 0.1 10052217
19:00+9wsw917612 0.1 10061701
22:00+7wsw917640 0.0 10081584